Location: Namasale
(1.5000°N, 32.6167°E)
Time: 16:45:28
(UTC+00:00)

STARLINK-1117 - Pass Details

Date: 09 April 2020
Orbit: 549 x 550 km, 53.0° (Epoch: 27 May)

Event Time Altitude Azimuth Distance (km) Brightness Sun altitude
Rises 16:32:19 0° 329° (NNW) 2,703 7.8 -10.0°
Reaches altitude 10° 16:34:33 10° 330° (NNW) 1,812 6.8 -10.6°
Maximum altitude 16:38:39 75° 55° (NE) 568 3.5 -11.6°
Enters shadow 16:42:42 11° 142° (SE) 1,783 5.8 -12.6°
